Regional Weather Roundup
Issued by NWS

Home | Current Version | Previous Version | Graphics & Text | Print | Product List | Glossary On
Versions: 1 2 3 4 5 6 7 8 9 10 11 12 13 14 15 16 17 18 19 20 21 22 23 24 25 26 27 28 29 30 31 32 33 34 35 36 37 38 39 40 41 42 43 44 45 46 47 48 49 50
000
ASUS43 KFSD 191502
RWRSD

WEATHER ROUNDUP FOR SOUTH DAKOTA
NATIONAL WEATHER SERVICE SIOUX FALLS SD
900 AM CST MON FEB 19 2018

NOTE: "FAIR" INDICATES FEW OR NO CLOUDS BELOW 12,000 FEET WITH NO
SIGNIFICANT WEATHER AND/OR OBSTRUCTIONS TO VISIBILITY.


SDZ001>005-009-010-012>017-191600-
NORTHWEST AND NORTH CENTRAL SOUTH DAKOTA

CITY           SKY/WX    TMP DP  RH WIND       PRES   REMARKS
BUFFALO          N/A      1  -6  72 NE13      29.96R WCI -17
FAITH            N/A      0  -6  76 N13       30.06R WCI -18
MOBRIDGE       MOSUNNY    7   0  73 N12       30.09R WCI  -8
$$

SDZ012>016-024>037-041>051-057-063-072>074-191600-
SOUTHWEST AND SOUTH CENTRAL SOUTH DAKOTA

CITY           SKY/WX    TMP DP  RH WIND       PRES   REMARKS
RAPID CTY ARPT LGT SNOW   2  -2  83 N9        30.00S FOG     WCI -13
PIERRE         CLOUDY     6   2  83 N14       30.08R WCI -11
CUSTER         LGT SNOW  -4 -10  75 NE6       29.72R WCI -16
ELLSWORTH AFB  CLOUDY     2  -1  87 N8        29.99  BLWGSNOWWCI -12
PHILIP         LGT SNOW   5   2  87 N13       30.09R FOG     WCI -12
PINE RIDGE     LGT SNOW   3  -2  79 N9        29.96R WCI -12
SPEARFISH      LGT SNOW  -2  -6  84 E5        29.94R WCI -12
WINNER         LGT SNOW  10   4  76 N20       29.99R WCI  -9
$$

SDZ004>011-016>023-039-040-191600-
NORTHEAST SOUTH DAKOTA

CITY           SKY/WX    TMP DP  RH WIND       PRES   REMARKS
ABERDEEN       MIX PCPN   8   2  76 N17G26    30.10R WCI -10
WATERTOWN      CLOUDY     9   4  80 N22       29.95R WCI -11
BROOKINGS      FLURRIES  10   6  84 N16G25    29.92R WCI  -7
SISSETON         N/A      8   4  83 N20       30.08R WCI -11
$$

SDZ017-020-022-023-036>040-048>070-191600-
SOUTHEAST SOUTH DAKOTA

CITY           SKY/WX    TMP DP  RH WIND       PRES   REMARKS
SIOUX FALLS    LGT SNOW  15  10  80 N16G28    29.88F WCI  -1
HURON          CLOUDY     9   4  80 N23G31    30.00F WCI -11
CHAMBERLAIN    CLOUDY    10   6  82 NW22G29   30.00R FOG     WCI  -9
MITCHELL       CLOUDY    12   8  84 N21       29.97F FOG     WCI  -7
YANKTON        MIX PCPN  16  13  88 N15       29.90S FOG     WCI   1
$$

ABBREVIATIONS USED IN REMARKS
   TC - TEMPERATURE IN CELSIUS
  WCI - WIND CHILL INDEX
   HX - HEAT INDEX
  VSB - VISIBILITY





USA.gov is the U.S. government's official web portal to all federal, state and local government web resources and services.